When you browse on this site, cookies collect data to enhance your experience and personalize the content and advertising you see.
Visit our Privacy Policy to learn more. By continuing to use the site, you agree to this use of cookies and data.

Tiempo cada hora Batina

Hoy, 13 Agosto, Jueves

Tiempo Temperatura Precipitaciones Viento Presión Humedad
00:00 +27°C° 0 mm 1 mps 673 mmHg 37%
01:00 +27°C° 0 mm 2 mps 673 mmHg 38%
02:00 +26°C° 0 mm 2 mps 672 mmHg 38%
03:00 +26°C° 0 mm 2 mps 672 mmHg 39%
04:00 +27°C° 0 mm 2 mps 673 mmHg 38%
05:00 +27°C° 0 mm 2 mps 673 mmHg 36%
06:00 +28°C° 0 mm 2 mps 674 mmHg 35%
07:00 +30°C° 0 mm 3 mps 675 mmHg 30%
08:00 +33°C° 0 mm 3 mps 675 mmHg 25%
09:00 +36°C° 0 mm 4 mps 676 mmHg 21%
10:00 +36°C° 0 mm 4 mps 676 mmHg 19%
11:00 +37°C° 0 mm 4 mps 676 mmHg 18%
12:00 +39°C° 0 mm 5 mps 676 mmHg 16%
13:00 +39°C° 0 mm 5 mps 675 mmHg 17%
14:00 +37°C° 0 mm 5 mps 675 mmHg 19%
15:00 +37°C° 0 mm 5 mps 674 mmHg 20%
16:00 +35°C° 0.1 mm 5 mps 674 mmHg 22%
17:00 +34°C° 0.1 mm 5 mps 674 mmHg 24%
18:00 +33°C° 0.1 mm 5 mps 674 mmHg 26%
19:00 +30°C° 0 mm 4 mps 674 mmHg 29%
20:00 +29°C° 0 mm 4 mps 674 mmHg 31%
21:00 +28°C° 0 mm 3 mps 674 mmHg 34%
22:00 +28°C° 0 mm 3 mps 674 mmHg 37%
23:00 +27°C° 0 mm 2 mps 674 mmHg 40%

Mañana, 14 Agosto, Viernes

Tiempo Temperatura Precipitaciones Viento Presión Humedad
00:00 +26°C° 0 mm 2 mps 674 mmHg 42%
01:00 +26°C° 0 mm 2 mps 673 mmHg 40%
02:00 +26°C° 0 mm 2 mps 673 mmHg 38%
03:00 +26°C° 0 mm 2 mps 673 mmHg 36%
04:00 +27°C° 0 mm 2 mps 673 mmHg 35%
05:00 +27°C° 0 mm 2 mps 674 mmHg 33%
06:00 +28°C° 0 mm 2 mps 674 mmHg 32%
07:00 +32°C° 0 mm 4 mps 675 mmHg 27%
08:00 +34°C° 0 mm 5 mps 675 mmHg 22%
09:00 +38°C° 0 mm 7 mps 676 mmHg 17%
10:00 +38°C° 0 mm 7 mps 676 mmHg 16%
11:00 +39°C° 0 mm 7 mps 675 mmHg 15%
12:00 +39°C° 0 mm 8 mps 675 mmHg 14%
13:00 +39°C° 0 mm 8 mps 675 mmHg 14%
14:00 +39°C° 0 mm 7 mps 674 mmHg 14%
15:00 +39°C° 0 mm 7 mps 674 mmHg 14%
16:00 +38°C° 0 mm 6 mps 674 mmHg 15%
17:00 +36°C° 0 mm 4 mps 674 mmHg 17%
18:00 +35°C° 0 mm 3 mps 674 mmHg 18%
19:00 +33°C° 0 mm 3 mps 674 mmHg 23%
20:00 +30°C° 0 mm 3 mps 674 mmHg 29%
21:00 +28°C° 0 mm 3 mps 674 mmHg 34%
22:00 +28°C° 0 mm 3 mps 674 mmHg 35%
23:00 +28°C° 0 mm 3 mps 673 mmHg 35%

Pasado mañana, 15 Agosto, Sábado

Tiempo Temperatura Precipitaciones Viento Presión Humedad
00:00 +28°C° 0 mm 2 mps 673 mmHg 36%
01:00 +27°C° 0 mm 2 mps 673 mmHg 36%
02:00 +27°C° 0 mm 2 mps 672 mmHg 35%
03:00 +26°C° 0 mm 2 mps 672 mmHg 35%
04:00 +27°C° 0 mm 2 mps 672 mmHg 34%
05:00 +27°C° 0 mm 2 mps 673 mmHg 32%
06:00 +28°C° 0 mm 2 mps 673 mmHg 31%
07:00 +30°C° 0 mm 3 mps 674 mmHg 27%
08:00 +33°C° 0 mm 4 mps 674 mmHg 23%
09:00 +35°C° 0 mm 6 mps 675 mmHg 19%
10:00 +36°C° 0 mm 6 mps 675 mmHg 18%
11:00 +38°C° 0 mm 6 mps 675 mmHg 17%
12:00 +38°C° 0 mm 6 mps 675 mmHg 15%
13:00 +38°C° 0 mm 6 mps 674 mmHg 15%
14:00 +38°C° 0 mm 6 mps 674 mmHg 15%
15:00 +39°C° 0 mm 5 mps 673 mmHg 14%
16:00 +37°C° 0 mm 5 mps 673 mmHg 15%
17:00 +36°C° 0 mm 4 mps 673 mmHg 16%
18:00 +35°C° 0 mm 3 mps 673 mmHg 17%
19:00 +33°C° 0 mm 3 mps 673 mmHg 21%
20:00 +30°C° 0 mm 2 mps 673 mmHg 25%
21:00 +29°C° 0 mm 2 mps 673 mmHg 29%
22:00 +28°C° 0 mm 2 mps 672 mmHg 29%
23:00 +28°C° 0 mm 2 mps 672 mmHg 30%

16 Agosto, Domingo

Tiempo Temperatura Precipitaciones Viento Presión Humedad
00:00 +27°C° 0 mm 2 mps 672 mmHg 31%
01:00 +27°C° 0 mm 2 mps 671 mmHg 29%
02:00 +27°C° 0 mm 3 mps 671 mmHg 28%
03:00 +27°C° 0 mm 3 mps 671 mmHg 27%
04:00 +27°C° 0 mm 3 mps 671 mmHg 27%
05:00 +27°C° 0 mm 3 mps 671 mmHg 27%
06:00 +28°C° 0 mm 3 mps 672 mmHg 27%
07:00 +30°C° 0 mm 4 mps 673 mmHg 24%
08:00 +34°C° 0 mm 5 mps 673 mmHg 20%
09:00 +36°C° 0 mm 7 mps 674 mmHg 17%
10:00 +38°C° 0 mm 7 mps 674 mmHg 16%
11:00 +39°C° 0 mm 7 mps 674 mmHg 15%
12:00 +39°C° 0 mm 7 mps 674 mmHg 14%
13:00 +39°C° 0 mm 7 mps 674 mmHg 14%
14:00 +39°C° 0 mm 6 mps 674 mmHg 14%
15:00 +39°C° 0 mm 6 mps 673 mmHg 14%
16:00 +37°C° 0 mm 5 mps 673 mmHg 15%
17:00 +36°C° 0 mm 4 mps 673 mmHg 16%
18:00 +35°C° 0 mm 3 mps 673 mmHg 17%
19:00 +33°C° 0 mm 3 mps 673 mmHg 21%
20:00 +30°C° 0 mm 2 mps 672 mmHg 25%
21:00 +28°C° 0 mm 2 mps 672 mmHg 29%
22:00 +28°C° 0 mm 2 mps 672 mmHg 30%
23:00 +27°C° 0 mm 1 mps 672 mmHg 31%

17 Agosto, Lunes

Tiempo Temperatura Precipitaciones Viento Presión Humedad
00:00 +26°C° 0 mm 1 mps 671 mmHg 31%
01:00 +26°C° 0 mm 1 mps 671 mmHg 31%
02:00 +26°C° 0 mm 1 mps 671 mmHg 31%
03:00 +26°C° 0 mm 1 mps 671 mmHg 30%
04:00 +27°C° 0 mm 2 mps 671 mmHg 29%
05:00 +28°C° 0 mm 2 mps 672 mmHg 27%
06:00 +28°C° 0 mm 3 mps 672 mmHg 25%
07:00 +32°C° 0 mm 4 mps 673 mmHg 22%
08:00 +35°C° 0 mm 6 mps 674 mmHg 18%
09:00 +38°C° 0 mm 7 mps 675 mmHg 14%
10:00 +39°C° 0 mm 8 mps 675 mmHg 14%
11:00 +39°C° 0 mm 8 mps 675 mmHg 13%
12:00 +40°C° 0 mm 8 mps 675 mmHg 13%
13:00 +40°C° 0 mm 8 mps 674 mmHg 12%
14:00 +40°C° 0 mm 7 mps 674 mmHg 12%
15:00 +40°C° 0 mm 7 mps 674 mmHg 12%
16:00 +39°C° 0 mm 6 mps 673 mmHg 13%
17:00 +36°C° 0 mm 5 mps 673 mmHg 14%
18:00 +35°C° 0 mm 4 mps 673 mmHg 15%
19:00 +34°C° 0 mm 3 mps 673 mmHg 17%
20:00 +31°C° 0 mm 3 mps 673 mmHg 19%
21:00 +30°C° 0 mm 3 mps 673 mmHg 21%
22:00 +29°C° 0 mm 2 mps 672 mmHg 25%
23:00 +28°C° 0 mm 2 mps 672 mmHg 29%

18 Agosto, Martes

Tiempo Temperatura Precipitaciones Viento Presión Humedad
00:00 +27°C° 0 mm 2 mps 672 mmHg 33%
01:00 +27°C° 0 mm 2 mps 671 mmHg 33%
02:00 +26°C° 0 mm 1 mps 671 mmHg 33%
03:00 +26°C° 0 mm 1 mps 671 mmHg 33%
04:00 +27°C° 0 mm 2 mps 671 mmHg 31%
05:00 +28°C° 0 mm 2 mps 672 mmHg 28%
06:00 +28°C° 0 mm 2 mps 672 mmHg 26%
07:00 +32°C° 0 mm 4 mps 673 mmHg 22%
08:00 +35°C° 0 mm 6 mps 674 mmHg 17%
09:00 +39°C° 0 mm 8 mps 675 mmHg 13%
10:00 +40°C° 0 mm 8 mps 674 mmHg 12%
11:00 +40°C° 0 mm 8 mps 674 mmHg 11%
12:00 +41°C° 0 mm 8 mps 674 mmHg 10%
13:00 +41°C° 0 mm 7 mps 674 mmHg 10%
14:00 +41°C° 0 mm 7 mps 674 mmHg 10%
15:00 +41°C° 0 mm 6 mps 673 mmHg 10%
16:00 +39°C° 0 mm 5 mps 673 mmHg 15%
17:00 +36°C° 0 mm 4 mps 673 mmHg 20%
18:00 +34°C° 0 mm 3 mps 672 mmHg 25%
19:00 +33°C° 0 mm 3 mps 672 mmHg 31%
20:00 +30°C° 0 mm 3 mps 672 mmHg 36%
21:00 +28°C° 0 mm 3 mps 672 mmHg 42%
22:00 +28°C° 0 mm 2 mps 672 mmHg 41%
23:00 +27°C° 0 mm 1 mps 672 mmHg 41%
Mostrar más